Location: Elstree
(51.6403°N, 0.2969°W)
Time: 13:54:38
(UTC+00:00)

Cosmos 1666 - Pass Details

Date: 03 March 2021
Orbit: 497 x 518 km, 82.5° (Epoch: 13 April)

Event Time Altitude Azimuth Distance (km) Brightness Sun altitude
Rises 20:04:41 0° 202° (SSW) 2,576 6.3 -22.2°
Reaches altitude 10° 20:06:49 10° 207° (SSW) 1,699 5.4 -22.5°
Maximum altitude 20:10:27 51° 285° (WNW) 641 3.5 -23.0°
Drops below altitude 10° 20:14:08 10° 2° (N) 1,720 5.5 -23.6°
Sets 20:16:19 0° 7° (N) 2,613 6.5 -23.9°
